When you browse on this site, cookies collect data to enhance your experience and personalize the content and advertising you see.
Visit our Privacy Policy to learn more. By continuing to use the site, you agree to this use of cookies and data.

Météo par heure à Martos

Ce jour, 14 Août, Vendredi

Heure Température Précipitation Vent Pression Humidité
00:00 +23°C° 0 mm 1 m/s 702 mmHg 36%
01:00 +22°C° 0 mm 1 m/s 702 mmHg 42%
02:00 +22°C° 0 mm 1 m/s 701 mmHg 47%
03:00 +21°C° 0 mm 1 m/s 700 mmHg 53%
04:00 +20°C° 0 mm 1 m/s 701 mmHg 55%
05:00 +20°C° 0 mm 1 m/s 701 mmHg 57%
06:00 +18°C° 0 mm 0 m/s 701 mmHg 60%
07:00 +22°C° 0 mm 1 m/s 701 mmHg 51%
08:00 +25°C° 0 mm 1 m/s 701 mmHg 43%
09:00 +27°C° 0 mm 1 m/s 702 mmHg 34%
10:00 +29°C° 0 mm 2 m/s 702 mmHg 29%
11:00 +31°C° 0 mm 3 m/s 702 mmHg 23%
12:00 +34°C° 0 mm 3 m/s 703 mmHg 18%
13:00 +34°C° 0 mm 4 m/s 702 mmHg 16%
14:00 +35°C° 0 mm 4 m/s 702 mmHg 15%
15:00 +36°C° 0 mm 5 m/s 701 mmHg 14%
16:00 +35°C° 0 mm 5 m/s 701 mmHg 15%
17:00 +34°C° 0 mm 5 m/s 701 mmHg 17%
18:00 +33°C° 0 mm 4 m/s 701 mmHg 18%
19:00 +30°C° 0 mm 4 m/s 701 mmHg 22%
20:00 +28°C° 0 mm 3 m/s 701 mmHg 25%
21:00 +26°C° 0 mm 3 m/s 701 mmHg 29%
22:00 +25°C° 0 mm 3 m/s 701 mmHg 32%
23:00 +24°C° 0 mm 2 m/s 701 mmHg 35%

Demain, 15 Août, Samedi

Heure Température Précipitation Vent Pression Humidité
00:00 +23°C° 0 mm 2 m/s 701 mmHg 39%
01:00 +21°C° 0 mm 2 m/s 701 mmHg 41%
02:00 +20°C° 0 mm 2 m/s 701 mmHg 44%
03:00 +20°C° 0 mm 1 m/s 700 mmHg 47%
04:00 +20°C° 0 mm 1 m/s 700 mmHg 50%
05:00 +19°C° 0 mm 1 m/s 701 mmHg 52%
06:00 +19°C° 0 mm 1 m/s 701 mmHg 55%
07:00 +21°C° 0 mm 1 m/s 701 mmHg 48%
08:00 +23°C° 0 mm 1 m/s 701 mmHg 42%
09:00 +25°C° 0 mm 1 m/s 702 mmHg 35%
10:00 +27°C° 0 mm 2 m/s 702 mmHg 30%
11:00 +29°C° 0 mm 3 m/s 702 mmHg 25%
12:00 +32°C° 0 mm 4 m/s 702 mmHg 20%
13:00 +32°C° 0 mm 4 m/s 702 mmHg 19%
14:00 +33°C° 0 mm 5 m/s 701 mmHg 17%
15:00 +34°C° 0 mm 5 m/s 701 mmHg 16%
16:00 +33°C° 0 mm 5 m/s 701 mmHg 16%
17:00 +32°C° 0 mm 4 m/s 700 mmHg 16%
18:00 +30°C° 0 mm 4 m/s 700 mmHg 17%
19:00 +28°C° 0 mm 3 m/s 700 mmHg 19%
20:00 +26°C° 0 mm 2 m/s 700 mmHg 22%
21:00 +24°C° 0 mm 2 m/s 700 mmHg 25%
22:00 +23°C° 0 mm 2 m/s 700 mmHg 31%
23:00 +21°C° 0 mm 2 m/s 700 mmHg 36%

Après-demain, 16 Août, Dimanche

Heure Température Précipitation Vent Pression Humidité
00:00 +20°C° 0 mm 2 m/s 700 mmHg 42%
01:00 +19°C° 0 mm 2 m/s 699 mmHg 46%
02:00 +20°C° 0 mm 1 m/s 699 mmHg 50%
03:00 +19°C° 0 mm 1 m/s 699 mmHg 54%
04:00 +19°C° 0 mm 1 m/s 699 mmHg 57%
05:00 +18°C° 0 mm 1 m/s 699 mmHg 60%
06:00 +18°C° 0 mm 1 m/s 699 mmHg 62%
07:00 +20°C° 0 mm 1 m/s 700 mmHg 53%
08:00 +22°C° 0 mm 1 m/s 700 mmHg 44%
09:00 +25°C° 0 mm 2 m/s 701 mmHg 35%
10:00 +26°C° 0 mm 2 m/s 701 mmHg 31%
11:00 +28°C° 0 mm 3 m/s 701 mmHg 26%
12:00 +30°C° 0 mm 4 m/s 701 mmHg 21%
13:00 +30°C° 0 mm 4 m/s 701 mmHg 19%
14:00 +32°C° 0 mm 5 m/s 701 mmHg 18%
15:00 +32°C° 0 mm 5 m/s 701 mmHg 16%
16:00 +32°C° 0 mm 4 m/s 701 mmHg 16%
17:00 +30°C° 0 mm 4 m/s 700 mmHg 16%
18:00 +30°C° 0 mm 4 m/s 700 mmHg 16%
19:00 +27°C° 0 mm 3 m/s 700 mmHg 19%
20:00 +25°C° 0 mm 2 m/s 700 mmHg 23%
21:00 +23°C° 0 mm 1 m/s 700 mmHg 26%
22:00 +22°C° 0 mm 1 m/s 700 mmHg 31%
23:00 +21°C° 0 mm 1 m/s 700 mmHg 37%

17 Août, Lundi

Heure Température Précipitation Vent Pression Humidité
00:00 +21°C° 0 mm 1 m/s 700 mmHg 42%
01:00 +20°C° 0 mm 1 m/s 700 mmHg 46%
02:00 +19°C° 0 mm 1 m/s 700 mmHg 50%
03:00 +19°C° 0 mm 1 m/s 700 mmHg 54%
04:00 +18°C° 0 mm 1 m/s 700 mmHg 55%
05:00 +16°C° 0 mm 0 m/s 700 mmHg 57%
06:00 +16°C° 0 mm 0 m/s 700 mmHg 58%
07:00 +18°C° 0 mm 0 m/s 700 mmHg 49%
08:00 +23°C° 0 mm 1 m/s 701 mmHg 41%
09:00 +25°C° 0 mm 1 m/s 702 mmHg 32%
10:00 +27°C° 0 mm 1 m/s 702 mmHg 28%
11:00 +29°C° 0 mm 2 m/s 702 mmHg 24%
12:00 +31°C° 0 mm 2 m/s 702 mmHg 19%
13:00 +32°C° 0 mm 2 m/s 702 mmHg 18%
14:00 +33°C° 0 mm 3 m/s 702 mmHg 16%
15:00 +34°C° 0 mm 3 m/s 702 mmHg 15%
16:00 +34°C° 0 mm 3 m/s 701 mmHg 15%
17:00 +34°C° 0 mm 3 m/s 701 mmHg 15%
18:00 +33°C° 0 mm 3 m/s 701 mmHg 16%
19:00 +30°C° 0 mm 2 m/s 701 mmHg 19%
20:00 +28°C° 0 mm 2 m/s 701 mmHg 23%
21:00 +25°C° 0 mm 1 m/s 702 mmHg 27%
22:00 +25°C° 0 mm 1 m/s 701 mmHg 29%
23:00 +22°C° 0 mm 0 m/s 701 mmHg 31%

18 Août, Mardi

Heure Température Précipitation Vent Pression Humidité
00:00 +21°C° 0 mm 0 m/s 701 mmHg 34%
01:00 +21°C° 0 mm 0 m/s 701 mmHg 35%
02:00 +20°C° 0 mm 0 m/s 701 mmHg 37%
03:00 +20°C° 0 mm 0 m/s 701 mmHg 38%
04:00 +20°C° 0 mm 0 m/s 701 mmHg 39%
05:00 +19°C° 0 mm 0 m/s 701 mmHg 40%
06:00 +19°C° 0 mm 0 m/s 701 mmHg 41%
07:00 +22°C° 0 mm 0 m/s 701 mmHg 35%
08:00 +26°C° 0 mm 1 m/s 702 mmHg 30%
09:00 +29°C° 0 mm 1 m/s 702 mmHg 24%
10:00 +31°C° 0 mm 1 m/s 702 mmHg 22%
11:00 +32°C° 0 mm 1 m/s 703 mmHg 19%
12:00 +35°C° 0 mm 2 m/s 703 mmHg 16%
13:00 +35°C° 0 mm 2 m/s 702 mmHg 16%
14:00 +36°C° 0 mm 2 m/s 702 mmHg 15%
15:00 +37°C° 0 mm 2 m/s 702 mmHg 14%
16:00 +36°C° 0 mm 2 m/s 702 mmHg 14%
17:00 +36°C° 0 mm 2 m/s 702 mmHg 14%
18:00 +36°C° 0 mm 3 m/s 702 mmHg 15%
19:00 +32°C° 0 mm 2 m/s 702 mmHg 18%
20:00 +30°C° 0 mm 2 m/s 702 mmHg 22%
21:00 +27°C° 0 mm 1 m/s 702 mmHg 26%
22:00 +26°C° 0 mm 1 m/s 702 mmHg 28%
23:00 +26°C° 0 mm 1 m/s 701 mmHg 30%

19 Août, Mercredi

Heure Température Précipitation Vent Pression Humidité
00:00 +25°C° 0 mm 1 m/s 701 mmHg 32%
01:00 +24°C° 0 mm 1 m/s 701 mmHg 34%
02:00 +24°C° 0 mm 1 m/s 701 mmHg 37%
03:00 +23°C° 0 mm 1 m/s 700 mmHg 39%
04:00 +23°C° 0 mm 1 m/s 700 mmHg 41%
05:00 +22°C° 0 mm 1 m/s 700 mmHg 42%
06:00 +22°C° 0 mm 1 m/s 700 mmHg 44%
07:00 +25°C° 0 mm 1 m/s 701 mmHg 38%
08:00 +27°C° 0 mm 1 m/s 701 mmHg 32%
09:00 +30°C° 0 mm 1 m/s 702 mmHg 26%
10:00 +31°C° 0 mm 1 m/s 702 mmHg 23%
11:00 +33°C° 0 mm 1 m/s 702 mmHg 20%
12:00 +35°C° 0 mm 1 m/s 702 mmHg 17%
13:00 +37°C° 0 mm 2 m/s 701 mmHg 16%
14:00 +38°C° 0 mm 2 m/s 701 mmHg 15%
15:00 +39°C° 0 mm 2 m/s 701 mmHg 14%
16:00 +38°C° 0 mm 3 m/s 700 mmHg 15%
17:00 +38°C° 0 mm 3 m/s 700 mmHg 16%
18:00 +37°C° 0 mm 3 m/s 700 mmHg 17%
19:00 +35°C° 0 mm 3 m/s 700 mmHg 22%
20:00 +31°C° 0 mm 2 m/s 700 mmHg 27%
21:00 +29°C° 0 mm 2 m/s 700 mmHg 32%
22:00 +28°C° 0 mm 2 m/s 700 mmHg 38%
23:00 +26°C° 0 mm 2 m/s 700 mmHg 44%
Voir plus